Simultaneous Nadir Overpasses (SNOs) Predictions

Prediction of SNOs between AQUA and METOP-B Satellite Orbit:

Table of predicted SNOs for the next 14.0 days since TLE Epoch: 10/5/2024
Index Date (AQUA) Time (AQUA) Lat,Lon (AQUA) SZA (AQUA ) Date (METOP-B) Time (METOP-B) Lat,Lon (METOP-B) SZA (METOP-B ) Distance(km) Time Diff (sec)
1 10/07/2024 03:32:25 -75.93, -53.94 98.48 10/07/2024 03:31:18 -75.89, -56.49 98.53 69.12 67
2 10/07/2024 04:21:55 76.35, 112.39 81.95 10/07/2024 04:21:48 76.34, 112.40 81.95 0.40 7
3 10/07/2024 05:11:16 -76.41, -80.16 97.98 10/07/2024 05:12:28 -76.41, -80.04 97.98 3.12 72
4 10/09/2024 18:02:33 -76.33, 87.32 97.09 10/09/2024 18:01:19 -76.34, 87.47 97.09 3.85 74
5 10/09/2024 18:51:55 76.37,-105.13 82.96 10/09/2024 18:51:58 76.38,-105.06 82.97 2.11 3
6 10/09/2024 19:41:23 -76.76, 61.17 96.64 10/09/2024 19:42:30 -76.80, 63.86 96.58 68.60 67
7 10/12/2024 08:32:26 -76.33,-130.08 96.12 10/12/2024 08:31:28 -76.33,-130.11 96.11 1.09 58
8 10/12/2024 09:21:48 76.37, 37.44 83.95 10/12/2024 09:22:07 76.37, 37.35 83.94 2.24 19
9 10/14/2024 23:02:15 -76.35, 12.46 95.13 10/14/2024 23:01:37 -76.34, 12.35 95.14 2.99 38
10 10/14/2024 23:51:37 76.40, 179.94 84.94 10/14/2024 23:52:15 76.42, 179.96 84.96 1.79 38
11 10/17/2024 13:31:59 -76.40, 154.92 94.12 10/17/2024 13:31:44 -76.40, 155.00 94.12 2.10 15



Historial Predications of SNOs between AQUA and METOP-B
